User: anonymous   Login
Location: Ahausen
(50.4985°N, 8.2722°E)
Time: 01:32:00
(UTC+00:00)
Language:

Okean 2 - Orbit

View from above orbital plane
View from above orbital plane
View from above satellite
View from above satellite

Ground track
Ground track

The orbit data is extracted from the following two-line orbital elements,

1 20510U 90018A   21127.43527157  .00000305  00000-0  22525-4 0  9991
2 20510  82.5164 246.8841 0011171 216.1323 210.7111 14.99680115673135
Epoch (UTC): 07 May 2021 10:26:47
Eccentricity: 0.0011171
inclination: 82.5164°
perigee height: 560 km
apogee height: 575 km
right ascension of ascending node: 246.8841°
argument of perigee: 216.1323°
revolutions per day: 14.99680115
mean anomaly at epoch: 210.7111°
orbit number at epoch: 67313

The dashed part of the orbit path shows where the satellite is in the earth's shadow,  

DLR